Location: Unspecified
(40.7945°N, 0.0000°E)
Time: 14:17:18
(UTC+00:00)

Courier 1B - Pass Details

Date: 25 January 2021
Orbit: 962 x 1209 km, 28.3° (Epoch: 24 February)

Event Time Altitude Azimuth Distance (km) Brightness Sun altitude
Rises 03:39:51 0° 256° (WSW) 3,636 - -40.8°
Reaches altitude 10° 03:43:39 10° 234° (SW) 2,685 - -40.1°
Maximum altitude 03:47:14 15° 200° (SSW) 2,317 - -39.5°
Drops below altitude 10° 03:50:51 10° 166° (SSE) 2,711 - -38.8°
Exits shadow 03:51:58 - 158° (SSE) 2,953 10.1 -38.6°
Sets 03:54:44 0° 145° (SE) 3,689 10.8 -38.1°
